Flag for U.S.A. Weather past 2 weeks in Casper, Wyoming, U.S.A.

Now
89 °F

Sunny.


Feels Like: 85 °F
Forecast: 54 / 91 °F
Wind: 7 mph from North

Location: Natrona County International Airport

Current Time: Aug 1, 2015 at 2:17:16 PM

Latest Report: Aug 1, 2015 at 12:53 PM


Visibility: 10 mi

Pressure: 29.93 "Hg (25.10 "Hg at 1569m altitude)

Humidity: 14%

Dew point: 34 °F

Location of CasperLocation

Historic Weather in Casper — Graph

°F

Casper temperature yesterday

Maximum temperature yesterday: 92 °F (at 3:53 PM)
Minimum temperature yesterday: 49 °F (at 4:53 AM)
Average temperature yesterday: 72 °F

Past Weeks' High & Low Weather Summary

 TemperatureHumidityPressure
High93 °F (Jul 26, 3:53 PM)89% (Jul 19, 4:53 AM)30.24 "Hg (Jul 19, 4:53 AM)
Low37 °F (Jul 29, 5:53 AM)7% (Jul 26, 3:53 PM)29.53 "Hg (Jul 27, 1:53 PM)
Average69 °F37%29.92 "Hg
* Reported Jul 17 12:03 PM — Aug 1 12:53 PM, Casper, Weather by CustomWeather, © 2015

Note: Actual official high and low records may vary slightly from our data, if they occured in-between our weather recording intervals... More about our weather records

Advertising

Casper weather history for previous 24 hours

 ConditionsComfort  
Time TempWeatherWind HumidityBarometerVisibility
12:53 PM
Sat, Aug 1
89 °FSunny.7 mph14%29.93 "Hg10 mi
11:53 AM87 °FSunny.5 mph16%29.95 "Hg10 mi
10:53 AM83 °FSunny.7 mph20%29.99 "Hg10 mi
9:53 AM80 °FSunny.3 mph24%29.97 "Hg10 mi
8:53 AM74 °FSunny.6 mph31%29.99 "Hg10 mi
7:53 AM69 °FSunny.No wind38%29.97 "Hg10 mi
6:53 AM57 °FClear.8 mph47%30.00 "Hg10 mi
5:53 AM54 °FClear.6 mph57%29.97 "Hg10 mi
4:53 AM51 °FClear.5 mph63%29.98 "Hg10 mi
3:53 AM56 °FClear.3 mph51%29.97 "Hg10 mi
2:53 AM56 °FClear.3 mph53%29.97 "Hg10 mi
1:53 AM57 °FClear.8 mph58%29.96 "Hg10 mi
12:53 AM62 °FClear.7 mph46%29.96 "Hg10 mi
11:53 PM
Fri, Jul 31
64 °FClear.8 mph40%29.96 "Hg10 mi
10:53 PM60 °FClear.8 mph47%29.99 "Hg10 mi
9:53 PM73 °FClear.N/A27%29.96 "Hg10 mi
8:53 PM75 °FSunny.8 mph22%29.96 "Hg10 mi
7:53 PM85 °FSunny.7 mph12%29.94 "Hg10 mi
6:53 PM87 °FSunny.3 mph10%29.96 "Hg10 mi
5:53 PM91 °FSunny.9 mph9%29.97 "Hg10 mi
4:53 PM90 °FSunny.10 mph9%29.99 "Hg10 mi
3:53 PM92 °FSunny.14 mph9%30.00 "Hg10 mi
2:53 PM90 °FSunny.5 mph9%30.03 "Hg10 mi
Weather by CustomWeather, © 2015

See weather overviewHow to use our weather pages